Dewpoint
31 32 31 33 31 30 29 27 25 23 24 26 25 29 32 33 39 44 45 47 49 50 55 58 59 60 60 60 60 60 59 59 58 58 57 57 57 56
31 31 30 31 31 31 30 29 27 25 23 27 25 27 30 36 41 45 46 48 48 50 53 58 59 58 59 59 59 58 58 58 57 57 56 56 56 56
29 29 30 30 30 31 30 29 28 26 23 28 33 34 30 29 45 46 47 47 48 49 52 57 57 57 58 58 57 57 57 56 56 56 56 55 55 57
28 28 28 30 30 31 31 30 29 27 25 26 29 31 33 34 44 45 47 48 49 48 52 56 55 56 57 56 56 55 55 55 55 55 55 55 57 57
29 28 28 30 29 30 30 30 30 28 27 26 27 34 35 42 44 46 47 47 49 48 51 54 54 55 55 55 54 54 54 54 54 54 55 55 56 54
29 29 28 30 28 29 29 29 29 30 28 27 26 29 37 43 43 44 44 47 47 50 53 55 53 54 54 53 53 52 52 53 54 54 54 54 53 53
29 30 28 30 28 28 29 28 29 29 29 27 28 29 38 43 40 44 43 47 49 52 52 52 53 54 52 52 51 51 52 53 54 54 54 53 53 52
28 29 29 31 26 26 28 29 29 29 28 28 28 29 40 41 42 43 45 47 48 54 52 51 51 50 53 53 51 50 52 53 53 53 53 53 52 51
29 29 30 31 28 29 29 30 30 30 30 30 27 34 42 43 42 44 46 48 45 47 47 42 45 41 43 47 50 51 51 51 51 51 51 50 49 49
31 30 31 30 29 29 28 29 30 30 31 31 32 37 44 43 43 47 47 47 47 47 47 39 41 37 40 40 43 49 49 49 48 47 46 45 43 42
31 31 31 29 30 29 28 30 30 30 32 33 36 40 40 44 48 49 47 45 44 43 44 41 38 35 35 34 38 39 41 42 42 42 41 41 40 39
29 29 28 29 28 29 30 30 29 31 33 34 36 38 44 48 48 49 48 44 43 43 42 40 39 41 36 34 33 35 38 37 38 39 40 40 41 40
28 28 29 28 30 31 31 30 30 33 33 35 38 44 47 46 46 47 46 48 47 43 42 42 39 37 33 33 32 32 33 35 36 35 35 36 38 39
29 31 33 33 33 32 32 32 34 35 35 40 40 41 40 41 40 40 40 40 41 43 42 42 39 37 34 32 33 32 31 32 32 32 33 33 32 31
35 33 33 34 34 34 35 36 36 40 40 38 37 37 38 39 40 40 40 39 36 35 39 42 41 41 39 35 34 32 34 29 30 30 29 28 28 29
36 37 36 37 38 37 38 39 40 39 38 37 38 40 42 43 43 43 41 40 38 34 33 33 37 39 36 35 34 31 30 33 28 27 27 26 26 26
36 37 37 37 38 38 38 39 40 40 39 40 40 40 40 40 40 42 40 39 37 34 32 32 32 31 30 31 29 27 27 27 27 26 25 23 25 25
34 33 33 35 36 36 37 38 39 39 39 40 40 40 40 39 39 39 38 36 34 33 32 33 35 36 33 29 29 27 26 26 27 26 26 24 22 25
33 32 32 33 34 35 36 36 36 37 38 38 38 37 37 37 38 36 35 34 33 32 32 32 34 35 36 29 27 29 26 26 26 25 25 25 22 23
32 32 32 32 33 34 35 35 36 36 36 36 36 37 37 36 35 35 34 33 32 32 31 29 30 33 33 30 26 26 29 28 27 25 25 25 25 25
31 31 32 33 33 34 34 34 34 34 34 34 34 34 35 34 33 33 32 32 32 31 29 27 27 28 28 28 26 25 25 27 28 27 26 25 24 23
29 30 31 32 33 33 33 34 34 34 33 33 33 33 33 33 33 32 31 30 28 27 26 26 27 28 28 27 25 25 24 22 20 21 23 26 24 14
27 28 29 30 31 32 33 32 31 31 31 32 31 31 31 29 29 28 28 27 26 26 26 25 25 25 25 24 23 21 16 12 17 16 16 10 13 17
Wind_Speed
14 17 14 15 15 17 14 13 9 9 12 2 1 4 2 5 4 4 6 6 7 4 13 31 32 31 31 30 30 29 28 29 27 26 25 26 23 21
14 18 17 15 19 18 16 13 12 6 7 9 2 2 5 5 3 6 7 8 7 5 8 31 32 31 33 32 30 29 28 27 26 26 25 25 23 21
15 16 14 22 17 17 17 14 13 8 7 3 1 2 2 2 6 7 7 6 6 7 12 31 33 33 36 32 32 30 29 28 26 27 26 24 22 20
18 17 18 16 17 20 17 17 16 12 6 8 2 4 3 2 5 8 7 6 8 3 19 31 32 36 36 34 32 31 30 28 27 27 24 22 22 22
20 21 19 21 22 18 19 17 16 14 10 5 3 3 2 3 6 7 9 7 6 2 23 33 33 35 35 33 32 32 30 29 27 26 23 22 24 22
18 21 21 16 24 21 19 17 16 14 11 8 4 1 2 4 11 11 9 7 7 6 18 27 30 35 33 32 31 30 27 28 27 25 24 24 22 21
20 21 21 20 24 22 18 20 18 15 14 11 6 2 3 11 15 7 8 9 8 8 19 18 24 23 23 26 26 28 30 29 27 26 25 23 21 20
22 22 22 27 27 27 23 19 18 17 16 10 7 6 7 10 13 11 13 17 10 11 17 20 19 15 16 19 23 27 32 29 27 26 24 22 20 18
24 24 22 19 23 23 23 20 17 15 13 10 14 6 9 11 13 14 15 6 13 19 33 19 19 20 15 13 27 29 30 28 26 25 24 21 20 19
26 26 23 25 22 22 23 20 17 17 15 11 12 5 7 15 17 10 14 23 19 16 25 13 11 17 16 20 22 26 28 26 26 26 25 24 24 22
26 25 25 25 26 27 23 22 20 17 15 11 5 2 8 12 16 18 21 27 17 12 10 13 6 14 14 18 19 27 26 25 25 24 25 26 27 26
25 26 27 24 29 26 21 21 21 16 14 9 5 4 3 24 17 16 21 21 22 17 5 11 8 10 9 9 15 15 19 29 29 24 20 15 15 17
23 22 21 28 26 20 15 14 14 16 14 8 3 6 15 13 13 15 14 24 20 14 5 9 7 8 8 8 7 14 14 14 14 17 27 25 22 15
24 20 21 25 23 23 18 20 20 14 13 11 14 19 18 20 19 20 21 24 24 21 8 7 10 8 9 9 8 6 14 15 12 13 13 16 25 29
20 22 23 22 22 18 17 18 16 11 14 16 17 18 15 18 23 25 26 31 31 24 19 16 21 19 14 11 10 5 7 10 12 11 14 16 12 10
29 24 22 18 16 16 17 15 16 17 18 17 20 18 17 19 20 21 25 22 27 22 25 22 16 12 15 14 14 9 7 6 6 11 13 14 14 13
25 25 24 23 24 22 20 21 21 20 21 18 20 19 21 21 18 16 18 21 20 14 17 19 26 30 27 12 14 11 10 10 7 7 9 13 12 10
28 26 24 22 21 21 20 19 19 20 19 18 19 21 21 21 22 20 20 24 24 18 19 13 17 18 12 21 23 12 12 8 6 8 6 9 7 6
27 24 23 22 19 19 20 20 21 19 17 18 20 19 20 21 24 22 20 23 21 18 12 6 8 7 16 8 4 20 7 4 4 9 9 6 5 3
24 23 22 19 19 20 20 21 22 20 20 19 21 20 19 22 21 21 18 21 21 18 17 14 12 9 6 10 8 4 15 5 6 8 5 5 4 2
22 23 19 19 21 21 21 21 21 20 20 21 21 20 17 22 22 20 20 19 21 18 20 17 12 14 16 11 12 6 6 13 8 5 4 4 3 2
19 21 20 20 19 19 19 19 21 21 21 20 19 18 18 19 23 20 17 20 18 18 18 10 8 9 9 8 14 10 6 4 5 7 7 6 3 2
19 18 18 18 17 17 19 20 21 20 18 19 19 18 17 21 17 18 18 17 17 17 15 17 14 14 14 14 12 8 9 5 2 6 5 2 1 2
Wind_Direction
211 201 193 183 190 187 187 180 182 190 224 273 252 342 319 65 43 118 122 107 83 50 140 142 146 152 148 143 143 144 144 145 146 143 140 137 140 145
206 212 199 192 194 190 192 191 184 151 192 210 254 319 21 48 40 125 120 112 99 41 115 142 144 144 140 139 142 142 141 142 145 141 138 137 142 145
190 192 194 189 193 175 181 189 192 167 142 121 262 13 39 80 80 101 115 93 105 73 148 142 142 139 138 141 142 141 140 143 145 140 140 143 142 138
190 181 184 188 182 175 172 179 192 180 168 133 67 59 98 90 122 120 111 101 112 89 152 141 142 140 141 145 142 142 142 145 141 137 140 142 140 135
184 180 179 191 179 159 167 171 176 175 163 143 102 46 82 120 132 123 110 94 102 127 146 143 144 143 144 143 143 142 145 142 138 137 136 136 132 132
172 172 171 172 163 162 162 166 171 153 151 151 166 80 83 145 142 137 121 144 141 86 145 148 144 138 139 140 140 141 141 134 133 132 133 131 132 133
164 166 167 166 165 162 159 170 162 153 155 153 144 168 134 157 156 138 128 124 105 135 126 132 128 127 132 130 136 139 133 129 131 132 133 133 133 131
157 157 163 167 171 169 164 163 161 156 154 154 166 163 149 145 152 144 145 126 142 134 107 89 100 90 124 130 136 138 129 132 133 132 131 131 127 123
148 149 154 160 156 159 155 141 155 143 139 145 170 174 131 145 147 146 159 138 99 118 109 79 87 73 59 83 132 127 126 127 127 123 120 119 115 111
136 141 145 144 150 150 149 148 147 145 149 174 179 136 73 148 153 148 124 104 91 91 112 100 86 77 67 55 58 115 121 123 120 118 117 112 103 95
118 130 132 135 144 147 148 143 144 154 164 169 175 312 339 144 134 131 118 109 110 79 63 107 83 90 66 48 45 63 87 98 103 106 110 110 106 98
114 123 131 140 148 151 150 146 147 154 151 161 190 273 115 137 130 130 123 124 122 109 27 105 138 118 83 25 36 39 71 69 75 76 80 82 97 99
123 129 135 147 148 140 131 139 142 139 145 136 86 82 111 90 88 92 116 134 128 107 82 104 124 91 76 114 44 33 53 53 71 67 65 65 68 91
125 128 135 142 139 132 128 132 136 126 121 115 105 99 102 96 83 84 81 76 69 97 84 106 112 110 119 103 101 45 48 47 56 70 72 70 67 67
113 129 131 126 127 123 129 134 136 125 117 115 109 108 104 114 109 100 90 82 69 55 50 82 105 112 105 116 128 121 111 41 46 67 64 59 57 46
92 103 113 114 116 123 126 115 100 110 118 114 110 116 117 106 104 116 103 95 89 65 48 47 71 99 97 89 103 102 78 121 65 71 80 69 61 58
91 88 87 89 93 95 95 101 107 108 110 111 108 108 100 98 91 91 91 89 100 102 82 65 70 73 64 71 90 77 87 85 81 106 89 80 52 49
77 79 79 81 87 92 93 97 99 100 99 101 102 103 107 105 100 89 93 99 105 98 101 101 105 99 81 56 47 70 63 81 74 78 75 92 78 46
73 72 74 78 80 85 89 91 92 84 90 89 96 99 104 96 97 96 98 104 97 96 83 65 79 105 123 111 40 32 89 75 78 63 46 68 125 137
68 70 73 74 78 81 83 89 87 84 83 85 87 87 86 96 95 93 94 107 106 94 80 55 58 74 105 142 128 55 35 73 83 86 81 61 71 97
59 61 62 71 76 79 79 77 81 80 80 82 78 80 86 98 92 93 93 95 96 93 88 75 71 89 102 104 100 101 52 43 65 117 133 97 78 47
55 62 61 64 69 75 79 82 81 79 79 80 81 83 85 94 99 98 96 99 93 96 99 91 81 82 61 96 108 110 99 51 57 75 80 87 91 77
54 58 59 61 63 71 79 81 83 82 84 88 85 82 84 88 86 90 93 93 103 104 103 97 85 80 91 100 105 110 110 83 41 46 44 42 267 269